Location: Ipswich
(52.0579°N, 1.1528°E)
Time: 20:34:18
(UTC+01:00)

ISS - Pass Details

Date: 08 May 2026
Orbit: 414 x 424 km, 51.6° (Epoch: 15 May)

Event Time Altitude Azimuth Distance (km) Brightness Sun altitude
Rises 21:27:17 0° 203° (SSW) 2,340 -0.2 -7.7°
Reaches altitude 10° 21:29:58 10° 179° (S) 1,482 -1.4 -8.0°
Maximum altitude 21:32:00 15° 142° (SE) 1,203 -2.1 -8.2°
Drops below altitude 10° 21:34:02 10° 104° (ESE) 1,490 -1.5 -8.5°
Enters shadow 21:35:04 - 92° (E) 1,783 -1.0 -8.6°
